Time,TemperatureF,DewpointF,PressureIn,WindDirection,WindDirectionDegrees,WindSpeedMPH,WindSpeedGustMPH,Humidity,HourlyPrecipIn,Conditions,Clouds,dailyrainin,SoftwareType,DateUTC
2014-04-20 00:10:00,55.2,51.0,30.06,South,189,0.0,2.0,87,0.00,,,0.00,weatherlink.com 1.10,2014-04-20 07:10:00,
2014-04-20 00:25:00,54.9,52.0,30.07,South,181,0.0,2.0,88,0.00,,,0.00,weatherlink.com 1.10,2014-04-20 07:25:00,
2014-04-20 00:40:00,54.6,51.0,30.06,South,181,0.0,1.0,88,0.00,,,0.00,weatherlink.com 1.10,2014-04-20 07:40:00,
2014-04-20 00:55:00,54.4,51.0,30.06,South,181,0.0,2.0,89,0.00,,,0.00,weatherlink.com 1.10,2014-04-20 07:55:00,
2014-04-20 01:10:00,54.1,51.0,30.07,South,181,0.0,1.0,88,0.00,,,0.00,weatherlink.com 1.10,2014-04-20 08:10:00,
2014-04-20 01:25:00,53.7,51.0,30.07,East,79,1.0,2.0,89,0.00,,,0.00,weatherlink.com 1.10,2014-04-20 08:25:00,
2014-04-20 01:40:00,53.5,51.0,30.07,East,79,0.0,2.0,90,0.00,,,0.00,weatherlink.com 1.10,2014-04-20 08:40:00,
2014-04-20 01:55:00,53.2,50.0,30.07,East,79,0.0,1.0,90,0.00,,,0.00,weatherlink.com 1.10,2014-04-20 08:55:00,
2014-04-20 02:10:00,53.0,51.0,30.07,East,79,0.0,2.0,91,0.00,,,0.00,weatherlink.com 1.10,2014-04-20 09:10:00,
2014-04-20 02:25:00,52.9,50.0,30.07,East,92,1.0,3.0,91,0.00,,,0.00,weatherlink.com 1.10,2014-04-20 09:25:00,
2014-04-20 02:40:00,52.7,50.0,30.07,ENE,70,0.0,2.0,91,0.00,,,0.00,weatherlink.com 1.10,2014-04-20 09:40:00,
2014-04-20 02:55:00,52.6,50.0,30.07,East,97,0.0,2.0,91,0.00,,,0.00,weatherlink.com 1.10,2014-04-20 09:55:00,
2014-04-20 03:10:00,52.4,50.0,30.07,East,97,0.0,2.0,91,0.00,,,0.00,weatherlink.com 1.10,2014-04-20 10:10:00,
2014-04-20 03:25:00,52.2,50.0,30.07,East,86,0.0,2.0,92,0.00,,,0.00,weatherlink.com 1.10,2014-04-20 10:25:00,
2014-04-20 03:40:00,52.1,50.0,30.07,East,86,0.0,2.0,92,0.00,,,0.00,weatherlink.com 1.10,2014-04-20 10:40:00,
2014-04-20 03:55:00,52.0,50.0,30.07,East,86,0.0,1.0,91,0.00,,,0.00,weatherlink.com 1.10,2014-04-20 10:55:00,
2014-04-20 04:10:00,51.6,49.0,30.07,East,86,0.0,1.0,92,0.00,,,0.00,weatherlink.com 1.10,2014-04-20 11:10:00,
2014-04-20 04:25:00,51.1,49.0,30.07,East,86,0.0,0.0,92,0.00,,,0.00,weatherlink.com 1.10,2014-04-20 11:25:00,
2014-04-20 04:40:00,50.5,48.0,30.07,East,86,0.0,0.0,91,0.00,,,0.00,weatherlink.com 1.10,2014-04-20 11:40:00,
2014-04-20 04:55:00,50.3,48.0,30.07,East,86,0.0,0.0,92,0.00,,,0.00,weatherlink.com 1.10,2014-04-20 11:55:00,
2014-04-20 05:10:00,49.8,48.0,30.07,East,86,0.0,0.0,93,0.00,,,0.00,weatherlink.com 1.10,2014-04-20 12:10:00,
2014-04-20 05:25:00,49.5,47.0,30.07,East,86,0.0,0.0,92,0.00,,,0.00,weatherlink.com 1.10,2014-04-20 12:25:00,
2014-04-20 05:40:00,49.1,47.0,30.07,East,86,0.0,0.0,93,0.00,,,0.00,weatherlink.com 1.10,2014-04-20 12:40:00,
2014-04-20 05:55:00,49.0,47.0,30.08,East,86,0.0,0.0,94,0.00,,,0.00,weatherlink.com 1.10,2014-04-20 12:55:00,
2014-04-20 06:10:00,48.7,47.0,30.08,East,86,0.0,0.0,93,0.00,,,0.00,weatherlink.com 1.10,2014-04-20 13:10:00,
2014-04-20 06:25:00,48.3,47.0,30.08,East,86,0.0,0.0,94,0.00,,,0.00,weatherlink.com 1.10,2014-04-20 13:25:00,
2014-04-20 06:40:00,48.5,48.0,30.09,East,86,0.0,0.0,96,0.00,,,0.00,weatherlink.com 1.10,2014-04-20 13:40:00,
2014-04-20 06:55:00,48.6,48.0,30.09,East,86,0.0,0.0,96,0.00,,,0.00,weatherlink.com 1.10,2014-04-20 13:55:00,
2014-04-20 07:11:00,49.0,48.0,30.09,East,86,0.0,0.0,96,0.00,,,0.00,weatherlink.com 1.10,2014-04-20 14:11:00,
2014-04-20 07:26:00,49.8,49.0,30.09,East,86,0.0,1.0,97,0.00,,,0.00,weatherlink.com 1.10,2014-04-20 14:26:00,
2014-04-20 07:41:00,51.6,51.0,30.09,East,86,1.0,2.0,97,0.00,,,0.00,weatherlink.com 1.10,2014-04-20 14:41:00,
2014-04-20 07:56:00,53.6,52.0,30.09,NNE,26,0.0,3.0,94,0.00,,,0.00,weatherlink.com 1.10,2014-04-20 14:56:00,
2014-04-20 08:11:00,55.7,53.0,30.09,NNE,12,1.0,3.0,91,0.00,,,0.00,weatherlink.com 1.10,2014-04-20 15:11:00,
2014-04-20 08:26:00,58.0,54.0,30.09,NNE,17,1.0,3.0,86,0.00,,,0.00,weatherlink.com 1.10,2014-04-20 15:26:00,
2014-04-20 08:41:00,60.2,54.0,30.09,WNW,301,2.0,4.0,81,0.00,,,0.00,weatherlink.com 1.10,2014-04-20 15:41:00,
2014-04-20 08:56:00,62.1,54.0,30.09,WNW,300,5.0,5.0,76,0.00,,,0.00,weatherlink.com 1.10,2014-04-20 15:56:00,
2014-04-20 09:11:00,63.2,54.0,30.09,West,279,1.0,9.0,73,0.00,,,0.00,weatherlink.com 1.10,2014-04-20 16:11:00,
2014-04-20 09:26:00,64.8,53.0,30.09,NNE,22,4.0,5.0,65,0.00,,,0.00,weatherlink.com 1.10,2014-04-20 16:26:00,
2014-04-20 09:41:00,66.6,50.0,30.09,West,279,3.0,4.0,55,0.00,,,0.00,weatherlink.com 1.10,2014-04-20 16:41:00,
2014-04-20 09:56:00,67.4,50.0,30.09,West,278,4.0,6.0,54,0.00,,,0.00,weatherlink.com 1.10,2014-04-20 16:56:00,
2014-04-20 10:11:00,68.5,49.0,30.09,West,274,1.0,5.0,50,0.00,,,0.00,weatherlink.com 1.10,2014-04-20 17:11:00,
2014-04-20 10:26:00,69.4,49.0,30.09,NW,304,1.0,9.0,49,0.00,,,0.00,weatherlink.com 1.10,2014-04-20 17:26:00,
2014-04-20 10:41:00,70.3,50.0,30.09,West,265,1.0,8.0,48,0.00,,,0.00,weatherlink.com 1.10,2014-04-20 17:41:00,
2014-04-20 10:56:00,70.9,48.0,30.09,West,261,2.0,8.0,45,0.00,,,0.00,weatherlink.com 1.10,2014-04-20 17:56:00,
2014-04-20 11:11:00,72.2,48.0,30.09,NW,321,4.0,9.0,43,0.00,,,0.00,weatherlink.com 1.10,2014-04-20 18:11:00,
2014-04-20 11:26:00,73.2,49.0,30.09,West,278,3.0,10.0,42,0.00,,,0.00,weatherlink.com 1.10,2014-04-20 18:26:00,